This demonstration page uses our WeatherBlox Daily Observations layout. Learn more.

Left ArrowRight Arrow

44.8408, -93.29828

Hourly Observations for May 19, 2021

Temp ( °F °C ) Dew Point ( °F °C ) Humidity (%) Winds ( mph kmh ) Pressure ( in mb ) Visibility ( mi km ) Precip ( " mm )
12:53 am 00:53 Cloudy 62 16.7 60 15.6 93 93 SE 9 15 29.96 1015 10 16 0.00 0.00
1:53 am 01:53 Cloudy 62 16.7 61 16.1 96 96 SE 9 15 29.94 1014 7 11 0.00 0.00
2:53 am 02:53 Cloudy 62 16.7 61 16.1 96 96 SSE 7 11 29.94 1014 7 11 0.00 0.00
3:53 am 03:53 Cloudy 62 16.7 62 16.7 100 100 SSE 7 11 29.94 1014 10 16 0.00 0.00
4:02 am 04:02 Cloudy with Mist and Fog 62 16.7 62 16.7 100 100 SSE 7 11 29.93 1013 5 8 0.00 0.00
4:53 am 04:53 Cloudy with Mist and Fog 62 16.7 62 16.7 100 100 SSE 6 9 29.95 1014 3 5 0.00 0.00
5:02 am 05:02 Cloudy with Mist and Fog 62 16.7 62 16.7 100 100 S 6 9 29.95 1014 3 4 0.00 0.00
5:28 am 05:28 Cloudy with Mist and Fog 63 17.2 62 16.7 97 97 SSE 6 9 29.95 1014 2 3 0.00 0.00
5:37 am 05:37 Cloudy with Light Rain 63 17.2 62 16.7 97 97 SSE 6 9 29.95 1014 3 4 0.01 0.25
5:53 am 05:53 Cloudy with Light Rain 63 17.2 63 17.2 100 100 SSE 6 9 29.96 1014 3 4 0.01 0.25
6:03 am 06:03 Cloudy with Mist and Fog 63 17.2 63 17.2 100 100 SSE 7 11 29.96 1014 1 2 0.00 0.00
6:25 am 06:25 Cloudy with Mist and Fog 63 17.2 63 17.2 100 100 SSE 7 11 29.96 1014 2 3 0.01 0.25
6:29 am 06:29 Cloudy with Mist and Fog 63 17.2 63 17.2 100 100 SSE 7 11 29.96 1014 3 5 0.01 0.25
6:42 am 06:42 Cloudy with Mist and Fog 64 17.8 63 17.2 96 96 S 7 11 29.97 1015 3 5 0.01 0.25
6:53 am 06:53 Cloudy with Mist and Fog 64 17.8 63 17.2 96 96 S 7 11 29.97 1015 4 6 0.01 0.25
7:06 am 07:06 Cloudy with Mist and Fog 65 18.3 64 17.8 97 97 S 6 9 29.95 1014 5 8 0.00 0.00
7:24 am 07:24 Cloudy with Mist and Fog 65 18.3 64 17.8 97 97 S 7 11 29.96 1015 6 10 0.00 0.00
7:34 am 07:34 Cloudy with Mist and Fog 65 18.3 64 17.8 97 97 S 6 9 29.96 1015 6 10 0.00 0.00
7:53 am 07:53 Cloudy 66 18.9 64 17.8 93 93 S 6 9 29.98 1015 7 11 0.00 0.00
7:58 am 07:58 Cloudy 66 18.9 64 17.8 93 93 S 7 11 29.96 1015 7 11 0.00 0.00
8:27 am 08:27 Cloudy 67 19.4 63 17.2 87 87 S 7 11 29.97 1015 8 13 0.00 0.00
8:36 am 08:36 Cloudy 66 18.9 64 17.8 93 93 S 6 9 29.97 1015 7 11 0.00 0.00
8:53 am 08:53 Cloudy 67 19.4 64 17.8 91 91 S 8 13 29.99 1016 8 13 0.00 0.00
9:01 am 09:01 Cloudy 67 19.4 64 17.8 91 91 S 8 13 29.97 1015 8 13 0.00 0.00
9:34 am 09:34 Cloudy 67 19.4 64 17.8 91 91 S 9 15 29.98 1015 10 16 0.00 0.00
9:53 am 09:53 Cloudy with Light Rain 67 19.4 64 17.8 91 91 S 13 20 29.99 1016 9 14 0.00 0.00
9:57 am 09:57 Cloudy 67 19.4 64 17.8 91 91 S 10 17 29.98 1015 9 14 0.00 0.00
10:11 am 10:11 Cloudy 68 20 64 17.8 87 87 S 12 19 29.98 1015 9 14 0.00 0.00
10:18 am 10:18 Cloudy 68 20 64 17.8 87 87 S 10 17 29.98 1015 9 14 0.00 0.00
10:32 am 10:32 Cloudy 68 20 65 18.3 90 90 S 10 17 29.98 1015 9 14 0.00 0.00
10:53 am 10:53 Cloudy 68 20 64 17.8 87 87 SSE 10 17 30.00 1016 9 14 0.00 0.00
11:26 am 11:26 Cloudy 70 21.1 64 17.8 82 82 S 8 13 29.97 1015 10 16 0.00 0.00
11:51 am 11:51 Cloudy 72 22 64 18 78 78 S 10 17 29.98 1015 10 16 0.00 0.00
11:53 am 11:53 Cloudy 72 22.2 64 17.8 76 76 S 12 19 30.00 1016 10 16 0.00 0.00
12:06 pm 12:06 Cloudy 72 22.2 64 17.8 76 76 S 9 15 29.97 1015 10 16 0.00 0.00
12:36 pm 12:36 Cloudy 73 22.8 63 17.2 71 71 S 10 17 29.97 1015 10 16 0.00 0.00
12:53 pm 12:53 Cloudy 73 22.8 63 17.2 71 71 S 15 24 29.99 1016 10 16 0.00 0.00
1:30 pm 13:30 Cloudy 75 23.9 63 17.2 66 66 S 12 19 29.96 1014 10 16 0.00 0.00
1:53 pm 13:53 Cloudy 75 23.9 62 16.7 64 64 S 14 22 29.98 1015 10 16 0.00 0.00
2:53 pm 14:53 Cloudy 75 23.9 63 17.2 66 66 SSW 9 15 29.98 1015 10 16 0.00 0.00
3:53 pm 15:53 Cloudy 74 23.3 65 18.3 74 74 SSE 10 17 29.98 1015 10 16 0.00 0.00
4:53 pm 16:53 Mostly Cloudy 74 23.3 66 18.9 76 76 SSE 8 13 29.97 1015 10 16 0.00 0.00
5:53 pm 17:53 Cloudy 71 21.7 67 19.4 87 87 SSE 8 13 29.97 1015 10 16 0.07 1.78
6:53 pm 18:53 Mostly Cloudy 71 21.7 65 18.3 81 81 SSE 14 22 29.97 1015 10 16 0.00 0.00
7:17 pm 19:17 Cloudy 71 21.7 65 18.3 81 81 SE 10 17 29.95 1014 10 16 0.00 0.00
7:53 pm 19:53 Cloudy 70 21.1 65 18.3 84 84 SE 10 17 29.97 1015 10 16 0.00 0.00
8:25 pm 20:25 Cloudy 70 21.1 65 18.3 84 84 SE 14 22 29.96 1015 9 14 0.00 0.00
8:53 pm 20:53 Cloudy with Light Rain 69 20.6 65 18.3 87 87 SSE 12 19 29.98 1015 6 10 0.00 0.00
9:28 pm 21:28 Cloudy with Heavy Rain 67 19.4 66 18.9 97 97 ESE 10 17 29.96 1015 3 4 0.13 3.30
9:43 pm 21:43 Cloudy with Light Rain 68 20 66 18.9 93 93 SSE 12 19 29.97 1015 5 8 0.27 6.86
9:53 pm 21:53 Cloudy with Rain 68 20 66 18.9 93 93 SSE 12 19 29.98 1015 2 3 0.28 7.11
10:05 pm 22:05 Cloudy with Light Rain 68 20 66 18.9 93 93 SE 9 15 29.97 1015 5 8 0.04 1.02
10:18 pm 22:18 Cloudy with Light Rain 68 20 66 18.9 93 93 SE 14 22 29.97 1015 3 4 0.05 1.27
10:23 pm 22:23 Cloudy with Heavy Rain 68 20 66 18.9 93 93 SSE 15 24 29.98 1015 2 3 0.05 1.27
10:40 pm 22:40 Cloudy with Rain 67 19.4 66 18.9 97 97 S 7 11 29.98 1015 1 2 0.28 7.11
10:50 pm 22:50 Cloudy with Rain 66 19 66 19 100 100 S 7 11 29.98 1015 1 2 0.32 8.13
10:53 pm 22:53 Cloudy with Rain 68 20 66 18.9 93 93 S 6 9 29.98 1015 2 3 0.34 8.64
10:58 pm 22:58 Cloudy with Light Rain 68 20 66 18.9 93 93 S 6 9 29.97 1015 2 3 0.01 0.25
11:01 pm 23:01 Cloudy with Rain 68 20 66 18.9 93 93 S 6 9 29.98 1015 2 3 0.02 0.51
11:07 pm 23:07 Cloudy with Light Rain 68 20 66 18.9 93 93 S 8 13 29.97 1015 3 5 0.04 1.02
11:30 pm 23:30 Cloudy 69 20.6 66 18.9 90 90 SSE 12 19 29.98 1015 8 13 0.04 1.02
11:53 pm 23:53 Cloudy 68 20 66 18.9 93 93 SSE 12 19 29.99 1016 8 13 0.04 1.02

Powered by AerisWeather